Weather in Derbent

Russia / Republic of Dagestan     42°03′27″N   48°17′19″E
temp.,
°C
wind,
m/s
gust,
m/s
humid.,
%
clouds,
%
prec.,
mm/h
press.,
hPa
HPBL,
m
23 april, fri
fri2300:00+12nnw1179100 0.0 101934
03:00+11nw338314 0.0 101932
06:00+13nnw5106781 0.0 1021757
09:00+13n797196 0.0 1022899
12:00+12n697199 0.0 1023754
15:00+14nnw246457 0.0 1023826
18:00+14sse22664 0.0 102460
21:00+12ssw22760 0.0 102416
24 april, sat
sat2400:00+12s33710 0.0 102218
03:00+11s33680 0.0 102024
06:00+11sse3565100 0.0 1019138
09:00+14ese4660100 0.0 1019669
12:00+15ne4359100 0.0 1017591
15:00+15n67630 0.0 1018593
18:00+13nnw57675 0.0 1020421
21:00+11nw22720 0.0 102115
25 april, sun
sun2500:00+10wsw11744 0.0 102110
03:00+10s117792 0.0 102110
06:00+12nnw116899 0.0 102113
09:00+16nne224797 0.0 1020584
12:00+17nne4344100 0.0 1019740
15:00+16nne3347100 0.0 1018575
18:00+15n2252100 0.0 101781
21:00+11s11621 0.0 101612
26 april, mon
mon2600:00+11s33641 0.0 101330
03:00+10s337725 0.0 101030
06:00+12nw5768100 0.0 1011211
09:00+15n345327 0.0 1010442
12:00+17ne32519 0.0 1008420
15:00+18ese34537 0.0 1004438
18:00+14nnw4561100 0.0 1007289
21:00+15nne1160100 0.0 100819
27 april, tue
tue2700:00+16wnw4761100 0.0 1010121
03:00+13nnw477398 0.0 1012138
06:00+12nnw3684100 0.1 1015369
09:00+13nnw4778100 0.1 1017605
12:00+12nnw5772100 0.0 1018754
15:00+12nnw577295 0.1 1018707
18:00+12nne2273100 0.0 1018250
21:00+10ne1184100 0.0 101944